Weather History for Tucumcari, NM

Change the Weather History Date:

Thursday, November 29, 2012

  Actual Average Record
Temperature  
Mean Temperature 60 °F -  
Max Temperature 75 °F 56 °F 81 °F (1949)
Min Temperature 44 °F 27 °F 2 °F (1976)
Degree Days  
Heating Degree Days 6    
Growing Degree Days 10 (Base 50)    
Moisture  
Dew Point 20 °F    
Average Humidity 27    
Maximum Humidity 43    
Minimum Humidity 12    
Precipitation  
Precipitation 0.00 in - - ()
Sea Level Pressure  
Sea Level Pressure 29.95 in    
Wind  
Wind Speed 10 mph (WSW)    
Max Wind Speed 14 mph    
Max Gust Speed -    
Visibility 10 miles    
Events      
Averages and records for this station are not official NWS values.
T = Trace of Precipitation, MM = Missing Value Source: NWS Daily Summary

Daily Weather History Graph

Daily Weather History Graph

Search for Another Location

Airport:

Trip Planner

Search our weather history database for the weather conditions in past years. The results will help you decide how hot, cold, wet, or windy it might be!

Date:

Astronomy

Nov. 29, 2012 Rise Set
Actual Time 6:43 AM MST 4:42 PM MST
Civil Twilight 6:15 AM MST 5:10 PM MST
Nautical Twilight 5:44 AM MST 5:41 PM MST
Astronomical Twilight 5:13 AM MST 6:12 PM MST
Moon 5:47 PM MST (11/29) 7:31 AM MST (11/29)
Length of Visible Light 10h 54m
Length of Day
9h 59m
Full, 99% of the Moon is Illuminated
Nov 29
Full
Dec 6
Last Quarter
Dec 13
New
Dec 19
First Quarter
Dec 28
Full

Hourly Weather History & Observations

Time (MST) Temp. Windchill Dew Point Humidity Pressure Visibility Wind Dir Wind Speed Gust Speed Precip Events Conditions
12:53 AM 51.1 °F - 16.0 °F 25% 29.99 in 10.0 mi West 13.8 mph - N/A   Clear
1:53 AM 46.0 °F 43.9 °F 18.0 °F 33% 29.99 in 10.0 mi SW 4.6 mph - N/A   Clear
2:53 AM 44.1 °F 38.6 °F 18.0 °F 35% 29.99 in 10.0 mi SW 10.4 mph - N/A   Clear
3:53 AM 46.9 °F - 19.9 °F 34% 29.97 in 10.0 mi SW 12.7 mph - N/A   Clear
4:53 AM 45.0 °F 40.1 °F 23.0 °F 42% 29.98 in 10.0 mi SW 9.2 mph - N/A   Clear
5:53 AM 46.0 °F 39.9 °F 24.1 °F 42% 29.99 in 10.0 mi WSW 13.8 mph - N/A   Clear
6:53 AM 44.1 °F 37.7 °F 23.0 °F 43% 30.01 in 10.0 mi WSW 12.7 mph - N/A   Clear
7:53 AM 46.9 °F - 24.1 °F 41% 30.01 in 10.0 mi WSW 8.1 mph - N/A   Clear
8:53 AM 55.0 °F - 24.1 °F 30% 30.01 in 10.0 mi WSW 4.6 mph - N/A   Clear
9:53 AM 62.1 °F - 21.0 °F 21% 29.99 in 10.0 mi West 12.7 mph - N/A   Clear
10:53 AM 64.9 °F - 21.0 °F 19% 29.97 in 10.0 mi WSW 3.5 mph - N/A   Clear
11:53 AM 70.0 °F - 19.9 °F 15% 29.92 in 10.0 mi WSW 8.1 mph - N/A   Clear
12:53 PM 73.9 °F - 19.9 °F 13% 29.88 in 10.0 mi WSW 8.1 mph - N/A   Clear
1:53 PM 73.9 °F - 18.0 °F 12% 29.88 in 10.0 mi West 8.1 mph - N/A   Clear
2:53 PM 75.0 °F - 18.0 °F 12% 29.86 in 10.0 mi WSW 8.1 mph - N/A   Clear
3:53 PM 73.9 °F - 19.9 °F 13% 29.86 in 10.0 mi WSW 11.5 mph - N/A   Clear
4:53 PM 63.0 °F - 19.0 °F 18% 29.90 in 10.0 mi WSW 8.1 mph - N/A   Clear
5:53 PM 62.1 °F - 21.0 °F 21% 29.91 in 10.0 mi WSW 9.2 mph - N/A   Clear
6:53 PM 57.0 °F - 19.9 °F 24% 29.94 in 10.0 mi WSW 12.7 mph - N/A   Clear
7:53 PM 53.1 °F - 19.9 °F 27% 29.95 in 10.0 mi SW 9.2 mph - N/A   Clear
8:53 PM 52.0 °F - 21.0 °F 30% 29.94 in 10.0 mi West 10.4 mph - N/A   Clear
9:53 PM 50.0 °F - 21.0 °F 32% 29.94 in 10.0 mi West 9.2 mph - N/A   Clear
10:53 PM 48.0 °F - 21.0 °F 34% 29.95 in 10.0 mi West 10.4 mph - N/A   Clear
11:53 PM 46.9 °F - 19.9 °F 34% 29.93 in 10.0 mi West 12.7 mph - N/A   Clear